Time,TemperatureF,DewpointF,PressureIn,WindDirection,WindDirectionDegrees,WindSpeedMPH,WindSpeedGustMPH,Humidity,HourlyPrecipIn,Conditions,Clouds,dailyrainin,SoftwareType,DateUTC
2013-04-26 00:01:00,48.2,31.4,30.51,NNE,15,0.0,0.0,52,0.00,,,0.00,Wunderground v.1.13,2013-04-26 04:01:00,
2013-04-26 00:02:00,48.2,31.4,30.51,NNE,15,0.0,0.0,52,0.00,,,0.00,Wunderground v.1.13,2013-04-26 04:02:00,
2013-04-26 00:04:00,48.2,30.9,30.51,NNE,15,0.0,0.0,51,0.00,,,0.00,Wunderground v.1.13,2013-04-26 04:04:00,
2013-04-26 00:09:00,48.2,31.9,30.51,NNE,15,0.0,0.0,53,0.00,,,0.00,Wunderground v.1.13,2013-04-26 04:09:00,
2013-04-26 00:11:00,48.1,31.3,30.51,NNE,15,0.0,0.0,52,0.00,,,0.00,Wunderground v.1.13,2013-04-26 04:11:00,
2013-04-26 00:12:00,48.1,31.3,30.51,NNE,15,0.0,0.0,52,0.00,,,0.00,Wunderground v.1.13,2013-04-26 04:12:00,
2013-04-26 00:17:00,48.0,31.2,30.51,NNE,15,0.0,0.0,52,0.00,,,0.00,Wunderground v.1.13,2013-04-26 04:17:00,
2013-04-26 00:23:00,47.8,31.5,30.51,NNE,15,0.0,0.0,53,0.00,,,0.00,Wunderground v.1.13,2013-04-26 04:23:00,
2013-04-26 00:28:00,47.7,31.4,30.51,NNE,15,0.0,0.0,53,0.00,,,0.00,Wunderground v.1.13,2013-04-26 04:28:00,
2013-04-26 00:33:00,47.6,31.3,30.51,NNE,15,0.0,0.0,53,0.00,,,0.00,Wunderground v.1.13,2013-04-26 04:33:00,
2013-04-26 00:39:00,47.6,30.8,30.51,NNE,15,0.0,0.0,52,0.00,,,0.00,Wunderground v.1.13,2013-04-26 04:39:00,
2013-04-26 00:44:00,47.7,30.9,30.51,NNE,15,0.0,0.0,52,0.00,,,0.00,Wunderground v.1.13,2013-04-26 04:44:00,
2013-04-26 00:49:00,47.7,30.9,30.51,NNE,15,0.0,0.0,52,0.00,,,0.00,Wunderground v.1.13,2013-04-26 04:49:00,
2013-04-26 00:55:00,47.8,31.9,30.51,NNE,15,0.0,0.0,54,0.00,,,0.00,Wunderground v.1.13,2013-04-26 04:55:00,
2013-04-26 01:00:00,47.7,31.4,30.51,NNE,15,0.0,0.0,53,0.00,,,0.00,Wunderground v.1.13,2013-04-26 05:00:00,
2013-04-26 01:05:00,47.5,31.2,30.51,NNE,15,0.0,0.0,53,0.00,,,0.00,Wunderground v.1.13,2013-04-26 05:05:00,
2013-04-26 01:11:00,47.4,31.6,30.51,NNE,15,0.0,0.0,54,0.00,,,0.00,Wunderground v.1.13,2013-04-26 05:11:00,
2013-04-26 01:16:00,47.2,31.8,30.51,NNE,15,0.0,0.0,55,0.00,,,0.00,Wunderground v.1.13,2013-04-26 05:16:00,
2013-04-26 01:21:00,47.1,32.2,30.51,NNE,15,0.0,0.0,56,0.00,,,0.00,Wunderground v.1.13,2013-04-26 05:21:00,
2013-04-26 01:27:00,46.9,32.0,30.50,NNE,15,0.0,0.0,56,0.00,,,0.00,Wunderground v.1.13,2013-04-26 05:27:00,
2013-04-26 01:32:00,46.7,31.8,30.50,NNE,15,0.0,0.0,56,0.00,,,0.00,Wunderground v.1.13,2013-04-26 05:32:00,
2013-04-26 01:37:00,46.4,32.0,30.50,NNE,15,0.0,0.0,57,0.00,,,0.00,Wunderground v.1.13,2013-04-26 05:37:00,
2013-04-26 01:42:00,46.2,31.8,30.50,NNE,15,0.0,0.0,57,0.00,,,0.00,Wunderground v.1.13,2013-04-26 05:42:00,
2013-04-26 01:47:00,46.1,32.1,30.50,NNE,15,0.0,0.0,58,0.00,,,0.00,Wunderground v.1.13,2013-04-26 05:47:00,
2013-04-26 01:52:00,46.0,32.0,30.50,NNE,15,0.0,0.0,58,0.00,,,0.00,Wunderground v.1.13,2013-04-26 05:52:00,
2013-04-26 01:57:00,45.9,32.8,30.50,NNE,15,0.0,0.0,60,0.00,,,0.00,Wunderground v.1.13,2013-04-26 05:57:00,
2013-04-26 02:02:00,45.7,32.6,30.50,NNE,15,0.0,0.0,60,0.00,,,0.00,Wunderground v.1.13,2013-04-26 06:02:00,
2013-04-26 02:07:00,45.5,32.8,30.50,NNE,15,0.0,0.0,61,0.00,,,0.00,Wunderground v.1.13,2013-04-26 06:07:00,
2013-04-26 02:12:00,45.3,33.0,30.49,NNE,15,0.0,0.0,62,0.00,,,0.00,Wunderground v.1.13,2013-04-26 06:12:00,
2013-04-26 02:17:00,45.1,33.2,30.49,NNE,15,0.0,0.0,63,0.00,,,0.00,Wunderground v.1.13,2013-04-26 06:17:00,
2013-04-26 02:22:00,45.0,33.5,30.49,NNE,15,0.0,0.0,64,0.00,,,0.00,Wunderground v.1.13,2013-04-26 06:22:00,
2013-04-26 02:27:00,44.9,33.5,30.49,NNE,15,0.0,0.0,64,0.00,,,0.00,Wunderground v.1.13,2013-04-26 06:27:00,
2013-04-26 02:32:00,44.7,33.3,30.49,NNE,15,0.0,0.0,64,0.00,,,0.00,Wunderground v.1.13,2013-04-26 06:32:00,
2013-04-26 02:37:00,44.5,33.1,30.49,NNE,15,0.0,0.0,64,0.00,,,0.00,Wunderground v.1.13,2013-04-26 06:37:00,
2013-04-26 02:42:00,44.4,33.4,30.49,NNE,15,0.0,0.0,65,0.00,,,0.00,Wunderground v.1.13,2013-04-26 06:42:00,
2013-04-26 02:47:00,44.3,33.3,30.49,NNE,15,0.0,0.0,65,0.00,,,0.00,Wunderground v.1.13,2013-04-26 06:47:00,
2013-04-26 02:52:00,44.3,33.3,30.48,NNE,15,0.0,0.0,65,0.00,,,0.00,Wunderground v.1.13,2013-04-26 06:52:00,
2013-04-26 02:57:00,44.4,33.4,30.48,NNE,15,0.0,0.0,65,0.00,,,0.00,Wunderground v.1.13,2013-04-26 06:57:00,
2013-04-26 03:02:00,44.4,33.4,30.48,NNE,15,0.0,0.0,65,0.00,,,0.00,Wunderground v.1.13,2013-04-26 07:02:00,
2013-04-26 03:07:00,44.3,32.9,30.48,NNE,15,0.0,0.0,64,0.00,,,0.00,Wunderground v.1.13,2013-04-26 07:07:00,
2013-04-26 03:12:00,44.3,32.9,30.48,NNE,15,0.0,0.0,64,0.00,,,0.00,Wunderground v.1.13,2013-04-26 07:12:00,
2013-04-26 03:17:00,44.3,33.3,30.48,NNE,15,0.0,0.0,65,0.00,,,0.00,Wunderground v.1.13,2013-04-26 07:17:00,
2013-04-26 03:22:00,44.2,32.8,30.48,NNE,15,0.0,0.0,64,0.00,,,0.00,Wunderground v.1.13,2013-04-26 07:22:00,
2013-04-26 03:27:00,44.2,33.2,30.48,NNE,15,0.0,0.0,65,0.00,,,0.00,Wunderground v.1.13,2013-04-26 07:27:00,
2013-04-26 03:32:00,44.0,32.2,30.48,NNE,15,0.0,0.0,63,0.00,,,0.00,Wunderground v.1.13,2013-04-26 07:32:00,
2013-04-26 03:37:00,44.0,31.8,30.48,NNE,15,0.0,0.0,62,0.00,,,0.00,Wunderground v.1.13,2013-04-26 07:37:00,
2013-04-26 03:42:00,43.9,32.1,30.48,NNE,15,0.0,0.0,63,0.00,,,0.00,Wunderground v.1.13,2013-04-26 07:42:00,
2013-04-26 03:47:00,43.7,31.5,30.48,NNE,15,0.0,0.0,62,0.00,,,0.00,Wunderground v.1.13,2013-04-26 07:47:00,
2013-04-26 03:52:00,43.6,31.4,30.48,NNE,15,0.0,0.0,62,0.00,,,0.00,Wunderground v.1.13,2013-04-26 07:52:00,
2013-04-26 03:57:00,43.7,31.5,30.48,NNE,15,0.0,0.0,62,0.00,,,0.00,Wunderground v.1.13,2013-04-26 07:57:00,
2013-04-26 04:02:00,43.8,31.6,30.48,NNE,15,0.0,0.0,62,0.00,,,0.00,Wunderground v.1.13,2013-04-26 08:02:00,
2013-04-26 04:08:00,43.9,32.1,30.49,NNE,15,0.0,0.0,63,0.00,,,0.00,Wunderground v.1.13,2013-04-26 08:08:00,
2013-04-26 04:13:00,43.8,32.0,30.49,NNE,15,0.0,0.0,63,0.00,,,0.00,Wunderground v.1.13,2013-04-26 08:13:00,
2013-04-26 04:17:00,43.6,31.8,30.49,NNE,15,0.0,0.0,63,0.00,,,0.00,Wunderground v.1.13,2013-04-26 08:17:00,
2013-04-26 04:23:00,43.5,32.1,30.49,NNE,15,0.0,0.0,64,0.00,,,0.00,Wunderground v.1.13,2013-04-26 08:23:00,
2013-04-26 04:28:00,43.3,31.9,30.49,NNE,15,0.0,0.0,64,0.00,,,0.00,Wunderground v.1.13,2013-04-26 08:28:00,
2013-04-26 04:33:00,43.0,31.6,30.49,NNE,15,0.0,0.0,64,0.00,,,0.00,Wunderground v.1.13,2013-04-26 08:33:00,
2013-04-26 04:38:00,42.8,31.8,30.49,NNE,15,0.0,0.0,65,0.00,,,0.00,Wunderground v.1.13,2013-04-26 08:38:00,
2013-04-26 04:43:00,42.6,32.0,30.49,NNE,15,0.0,0.0,66,0.00,,,0.00,Wunderground v.1.13,2013-04-26 08:43:00,
2013-04-26 04:48:00,42.4,31.8,30.49,NNE,15,0.0,0.0,66,0.00,,,0.00,Wunderground v.1.13,2013-04-26 08:48:00,
2013-04-26 04:53:00,42.2,31.6,30.49,NNE,15,0.0,0.0,66,0.00,,,0.00,Wunderground v.1.13,2013-04-26 08:53:00,
2013-04-26 04:58:00,42.2,31.6,30.50,NNE,15,0.0,0.0,66,0.00,,,0.00,Wunderground v.1.13,2013-04-26 08:58:00,
2013-04-26 05:03:00,42.1,31.9,30.50,NNE,15,0.0,0.0,67,0.00,,,0.00,Wunderground v.1.13,2013-04-26 09:03:00,
2013-04-26 05:08:00,42.1,31.6,30.50,NNE,15,0.0,0.0,66,0.00,,,0.00,Wunderground v.1.13,2013-04-26 09:08:00,
2013-04-26 05:13:00,42.1,31.6,30.50,NNE,15,0.0,0.0,66,0.00,,,0.00,Wunderground v.1.13,2013-04-26 09:13:00,
2013-04-26 05:18:00,42.1,31.6,30.50,NNE,15,0.0,0.0,66,0.00,,,0.00,Wunderground v.1.13,2013-04-26 09:18:00,
2013-04-26 05:23:00,42.2,32.0,30.50,NNE,15,0.0,0.0,67,0.00,,,0.00,Wunderground v.1.13,2013-04-26 09:23:00,
2013-04-26 05:28:00,42.2,31.6,30.50,NNE,15,0.0,0.0,66,0.00,,,0.00,Wunderground v.1.13,2013-04-26 09:28:00,
2013-04-26 05:33:00,42.2,31.6,30.50,NNE,15,0.0,0.0,66,0.00,,,0.00,Wunderground v.1.13,2013-04-26 09:33:00,
2013-04-26 05:38:00,42.2,31.6,30.50,NNE,15,0.0,0.0,66,0.00,,,0.00,Wunderground v.1.13,2013-04-26 09:38:00,
2013-04-26 05:43:00,42.2,32.0,30.50,NNE,15,0.0,0.0,67,0.00,,,0.00,Wunderground v.1.13,2013-04-26 09:43:00,
2013-04-26 05:48:00,42.1,31.9,30.50,NNE,15,0.0,0.0,67,0.00,,,0.00,Wunderground v.1.13,2013-04-26 09:48:00,
2013-04-26 05:53:00,42.0,31.8,30.50,NNE,15,0.0,0.0,67,0.00,,,0.00,Wunderground v.1.13,2013-04-26 09:53:00,
2013-04-26 05:58:00,41.8,31.6,30.50,NNE,15,0.0,0.0,67,0.00,,,0.00,Wunderground v.1.13,2013-04-26 09:58:00,
2013-04-26 06:03:00,41.7,31.5,30.50,NNE,15,0.0,0.0,67,0.00,,,0.00,Wunderground v.1.13,2013-04-26 10:03:00,
2013-04-26 06:08:00,41.6,31.4,30.51,NNE,15,0.0,0.0,67,0.00,,,0.00,Wunderground v.1.13,2013-04-26 10:08:00,
2013-04-26 06:13:00,41.6,31.4,30.51,NNE,15,0.0,0.0,67,0.00,,,0.00,Wunderground v.1.13,2013-04-26 10:13:00,
2013-04-26 06:18:00,41.6,31.4,30.51,NNE,15,0.0,0.0,67,0.00,,,0.00,Wunderground v.1.13,2013-04-26 10:18:00,
2013-04-26 06:23:00,41.5,31.0,30.51,NNE,15,0.0,0.0,66,0.00,,,0.00,Wunderground v.1.13,2013-04-26 10:23:00,
2013-04-26 06:28:00,41.6,31.1,30.51,NNE,15,0.0,0.0,66,0.00,,,0.00,Wunderground v.1.13,2013-04-26 10:28:00,
2013-04-26 06:33:00,41.6,30.7,30.51,NNE,15,0.0,0.0,65,0.00,,,0.00,Wunderground v.1.13,2013-04-26 10:33:00,
2013-04-26 06:38:00,41.6,30.7,30.51,NNE,15,0.0,0.0,65,0.00,,,0.00,Wunderground v.1.13,2013-04-26 10:38:00,
2013-04-26 06:43:00,41.7,31.2,30.52,NNE,15,0.0,0.0,66,0.00,,,0.00,Wunderground v.1.13,2013-04-26 10:43:00,
2013-04-26 06:48:00,41.8,31.3,30.52,NNE,15,0.0,0.0,66,0.00,,,0.00,Wunderground v.1.13,2013-04-26 10:48:00,
2013-04-26 06:53:00,41.9,30.6,30.52,NNE,15,0.0,0.0,64,0.00,,,0.00,Wunderground v.1.13,2013-04-26 10:53:00,
2013-04-26 06:58:00,41.9,30.2,30.53,NNE,15,0.0,0.0,63,0.00,,,0.00,Wunderground v.1.13,2013-04-26 10:58:00,
2013-04-26 07:03:00,41.9,30.6,30.53,NNE,15,0.0,0.0,64,0.00,,,0.00,Wunderground v.1.13,2013-04-26 11:03:00,
2013-04-26 07:08:00,42.0,31.5,30.53,NNE,15,0.0,0.0,66,0.00,,,0.00,Wunderground v.1.13,2013-04-26 11:08:00,
2013-04-26 07:13:00,42.1,31.6,30.53,NNE,15,0.0,0.0,66,0.00,,,0.00,Wunderground v.1.13,2013-04-26 11:13:00,
2013-04-26 07:18:00,42.1,31.2,30.53,NNE,15,0.0,0.0,65,0.00,,,0.00,Wunderground v.1.13,2013-04-26 11:18:00,
2013-04-26 07:23:00,42.1,31.6,30.53,NNE,15,0.0,0.0,66,0.00,,,0.00,Wunderground v.1.13,2013-04-26 11:23:00,
2013-04-26 07:28:00,42.1,31.6,30.54,NNE,15,0.0,0.0,66,0.00,,,0.00,Wunderground v.1.13,2013-04-26 11:28:00,
2013-04-26 07:33:00,42.0,31.5,30.54,NNE,15,0.0,0.0,66,0.00,,,0.00,Wunderground v.1.13,2013-04-26 11:33:00,
2013-04-26 07:38:00,41.9,31.7,30.54,NNE,15,0.0,0.0,67,0.00,,,0.00,Wunderground v.1.13,2013-04-26 11:38:00,
2013-04-26 07:43:00,41.9,31.7,30.55,NNE,15,0.0,0.0,67,0.00,,,0.00,Wunderground v.1.13,2013-04-26 11:43:00,
2013-04-26 07:48:00,41.9,31.7,30.55,NNE,15,0.0,0.0,67,0.00,,,0.00,Wunderground v.1.13,2013-04-26 11:48:00,
2013-04-26 07:53:00,42.0,31.8,30.55,NNE,15,0.0,0.0,67,0.00,,,0.00,Wunderground v.1.13,2013-04-26 11:53:00,
2013-04-26 07:58:00,42.1,31.9,30.55,NNE,15,0.0,0.0,67,0.00,,,0.00,Wunderground v.1.13,2013-04-26 11:58:00,
2013-04-26 08:03:00,42.2,31.6,30.55,NNE,15,0.0,0.0,66,0.00,,,0.00,Wunderground v.1.13,2013-04-26 12:03:00,
2013-04-26 08:08:00,42.3,31.7,30.56,NNE,15,0.0,0.0,66,0.00,,,0.00,Wunderground v.1.13,2013-04-26 12:08:00,
2013-04-26 08:13:00,42.5,31.6,30.56,NNE,15,0.0,0.0,65,0.00,,,0.00,Wunderground v.1.13,2013-04-26 12:13:00,
2013-04-26 08:18:00,42.7,31.7,30.55,NNE,15,0.0,0.0,65,0.00,,,0.00,Wunderground v.1.13,2013-04-26 12:18:00,
2013-04-26 08:23:00,43.0,32.8,30.56,NNE,15,0.0,0.0,67,0.00,,,0.00,Wunderground v.1.13,2013-04-26 12:23:00,
2013-04-26 08:28:00,43.3,33.8,30.56,NNE,15,0.0,0.0,69,0.00,,,0.00,Wunderground v.1.13,2013-04-26 12:28:00,
2013-04-26 08:33:00,43.6,34.5,30.56,NNE,15,0.0,0.0,70,0.00,,,0.00,Wunderground v.1.13,2013-04-26 12:33:00,
2013-04-26 08:38:00,43.7,36.0,30.56,NNE,15,0.0,0.0,74,0.00,,,0.00,Wunderground v.1.13,2013-04-26 12:38:00,
2013-04-26 08:43:00,43.7,35.3,30.56,NNE,15,0.0,0.0,72,0.00,,,0.00,Wunderground v.1.13,2013-04-26 12:43:00,
2013-04-26 08:48:00,43.6,35.2,30.56,NNE,15,0.0,0.0,72,0.00,,,0.00,Wunderground v.1.13,2013-04-26 12:48:00,
2013-04-26 08:53:00,43.6,34.5,30.56,NNE,15,0.0,0.0,70,0.00,,,0.00,Wunderground v.1.13,2013-04-26 12:53:00,
2013-04-26 08:58:00,43.8,36.0,30.55,NNE,15,0.0,0.0,74,0.00,,,0.00,Wunderground v.1.13,2013-04-26 12:58:00,
2013-04-26 09:04:00,44.0,36.6,30.55,NNE,15,0.0,0.0,75,0.00,,,0.00,Wunderground v.1.13,2013-04-26 13:04:00,
2013-04-26 09:09:00,44.5,35.0,30.55,NNE,15,0.0,0.0,69,0.00,,,0.00,Wunderground v.1.13,2013-04-26 13:09:00,
2013-04-26 09:14:00,45.0,36.5,30.55,NNE,15,0.0,1.0,72,0.00,,,0.00,Wunderground v.1.13,2013-04-26 13:14:00,
2013-04-26 09:19:00,45.5,37.0,30.55,NNE,15,0.0,0.0,72,0.00,,,0.00,Wunderground v.1.13,2013-04-26 13:19:00,
2013-04-26 09:24:00,45.8,36.2,30.54,NNE,15,0.0,0.0,69,0.00,,,0.00,Wunderground v.1.13,2013-04-26 13:24:00,
2013-04-26 09:29:00,46.4,36.4,30.54,NNE,15,0.0,0.0,68,0.00,,,0.00,Wunderground v.1.13,2013-04-26 13:29:00,
2013-04-26 09:34:00,47.0,36.2,30.54,NNE,15,0.0,0.0,66,0.00,,,0.00,Wunderground v.1.13,2013-04-26 13:34:00,
2013-04-26 09:39:00,47.6,36.0,30.54,NNE,15,0.0,0.0,64,0.00,,,0.00,Wunderground v.1.13,2013-04-26 13:39:00,
2013-04-26 09:44:00,48.3,37.1,30.54,NNE,15,0.0,0.0,65,0.00,,,0.00,Wunderground v.1.13,2013-04-26 13:44:00,
2013-04-26 09:49:00,49.2,37.5,30.54,NNE,15,0.0,1.0,64,0.00,,,0.00,Wunderground v.1.13,2013-04-26 13:49:00,
2013-04-26 09:54:00,49.9,37.4,30.53,NNE,15,0.0,0.0,62,0.00,,,0.00,Wunderground v.1.13,2013-04-26 13:54:00,
2013-04-26 09:59:00,50.4,37.0,30.53,NNE,15,0.0,0.0,60,0.00,,,0.00,Wunderground v.1.13,2013-04-26 13:59:00,
2013-04-26 10:04:00,51.0,38.0,30.53,NNE,15,0.0,0.0,61,0.00,,,0.00,Wunderground v.1.13,2013-04-26 14:04:00,
2013-04-26 10:09:00,51.7,37.4,30.53,NNE,15,0.0,1.0,58,0.00,,,0.00,Wunderground v.1.13,2013-04-26 14:09:00,
2013-04-26 10:14:00,52.3,37.1,30.53,NNE,15,0.0,0.0,56,0.00,,,0.00,Wunderground v.1.13,2013-04-26 14:14:00,
2013-04-26 10:19:00,52.9,37.2,30.53,NNE,15,0.0,1.0,55,0.00,,,0.00,Wunderground v.1.13,2013-04-26 14:19:00,
2013-04-26 10:24:00,53.8,38.0,30.53,NNE,15,0.0,1.0,55,0.00,,,0.00,Wunderground v.1.13,2013-04-26 14:24:00,
2013-04-26 10:29:00,54.5,36.7,30.54,NNE,15,0.0,1.0,51,0.00,,,0.00,Wunderground v.1.13,2013-04-26 14:29:00,
2013-04-26 10:34:00,55.9,36.5,30.54,ESE,110,0.0,3.0,48,0.00,,,0.00,Wunderground v.1.13,2013-04-26 14:34:00,
2013-04-26 10:39:00,57.3,35.6,30.53,SSW,200,1.0,6.0,44,0.00,,,0.00,Wunderground v.1.13,2013-04-26 14:39:00,
2013-04-26 10:44:00,58.4,35.4,30.53,SSW,196,1.0,6.0,42,0.00,,,0.00,Wunderground v.1.13,2013-04-26 14:44:00,
2013-04-26 10:49:00,59.4,33.8,30.53,SSE,167,0.0,5.0,38,0.00,,,0.00,Wunderground v.1.13,2013-04-26 14:49:00,
2013-04-26 10:54:00,60.0,33.6,30.53,SSE,152,0.0,2.0,37,0.00,,,0.00,Wunderground v.1.13,2013-04-26 14:54:00,
2013-04-26 11:00:00,60.9,33.7,30.53,SSW,194,4.0,4.0,36,0.00,,,0.00,Wunderground v.1.13,2013-04-26 15:00:00,
2013-04-26 11:05:00,61.3,31.9,30.54,South,191,0.0,1.0,33,0.00,,,0.00,Wunderground v.1.13,2013-04-26 15:05:00,
2013-04-26 11:10:00,61.9,33.9,30.54,West,261,0.0,1.0,35,0.00,,,0.00,Wunderground v.1.13,2013-04-26 15:10:00,
2013-04-26 11:15:00,62.4,32.9,30.55,SSW,195,4.0,4.0,33,0.00,,,0.00,Wunderground v.1.13,2013-04-26 15:15:00,
2013-04-26 11:20:00,62.9,35.5,30.54,West,260,0.0,0.0,36,0.00,,,0.00,Wunderground v.1.13,2013-04-26 15:20:00,
2013-04-26 11:25:00,63.4,33.8,30.55,WSW,258,0.0,1.0,33,0.00,,,0.00,Wunderground v.1.13,2013-04-26 15:25:00,
2013-04-26 11:30:00,63.5,33.1,30.54,SW,236,0.0,1.0,32,0.00,,,0.00,Wunderground v.1.13,2013-04-26 15:30:00,
2013-04-26 11:35:00,63.4,33.8,30.55,SE,130,0.0,3.0,33,0.00,,,0.00,Wunderground v.1.13,2013-04-26 15:35:00,
2013-04-26 11:40:00,63.8,35.6,30.55,West,281,0.0,1.0,35,0.00,,,0.00,Wunderground v.1.13,2013-04-26 15:40:00,
2013-04-26 11:45:00,64.4,36.1,30.54,WNW,298,0.0,1.0,35,0.00,,,0.00,Wunderground v.1.13,2013-04-26 15:45:00,
2013-04-26 11:50:00,64.7,34.1,30.54,West,270,2.0,3.0,32,0.00,,,0.00,Wunderground v.1.13,2013-04-26 15:50:00,
2013-04-26 11:55:00,64.7,35.7,30.54,SW,221,2.0,2.0,34,0.00,,,0.00,Wunderground v.1.13,2013-04-26 15:55:00,
2013-04-26 12:00:00,65.3,33.9,30.54,SSW,202,8.0,8.0,31,0.00,,,0.00,Wunderground v.1.13,2013-04-26 16:00:00,
2013-04-26 12:05:00,65.5,35.6,30.54,West,259,1.0,1.0,33,0.00,,,0.00,Wunderground v.1.13,2013-04-26 16:05:00,
2013-04-26 12:10:00,65.4,33.1,30.55,South,169,0.0,3.0,30,0.00,,,0.00,Wunderground v.1.13,2013-04-26 16:10:00,
2013-04-26 12:15:00,65.9,35.2,30.54,SW,229,0.0,1.0,32,0.00,,,0.00,Wunderground v.1.13,2013-04-26 16:15:00,
2013-04-26 12:20:00,66.3,34.7,30.55,SSE,163,0.0,1.0,31,0.00,,,0.00,Wunderground v.1.13,2013-04-26 16:20:00,
2013-04-26 12:25:00,66.2,34.7,30.55,WNW,288,0.0,1.0,31,0.00,,,0.00,Wunderground v.1.13,2013-04-26 16:25:00,
2013-04-26 12:30:00,66.0,34.5,30.55,SSW,202,0.0,1.0,31,0.00,,,0.00,Wunderground v.1.13,2013-04-26 16:30:00,
2013-04-26 12:35:00,65.8,32.6,30.55,SSW,200,3.0,7.0,29,0.00,,,0.00,Wunderground v.1.13,2013-04-26 16:35:00,
2013-04-26 12:40:00,66.5,34.1,30.55,SSW,211,2.0,2.0,30,0.00,,,0.00,Wunderground v.1.13,2013-04-26 16:40:00,
2013-04-26 12:45:00,66.8,34.3,30.55,SSE,167,4.0,6.0,30,0.00,,,0.00,Wunderground v.1.13,2013-04-26 16:45:00,
2013-04-26 12:50:00,66.5,33.2,30.55,SSW,212,1.0,1.0,29,0.00,,,0.00,Wunderground v.1.13,2013-04-26 16:50:00,
2013-04-26 12:55:00,66.1,34.6,30.55,WNW,294,1.0,2.0,31,0.00,,,0.00,Wunderground v.1.13,2013-04-26 16:55:00,
2013-04-26 13:00:00,66.5,35.7,30.55,SSW,192,3.0,3.0,32,0.00,,,0.00,Wunderground v.1.13,2013-04-26 17:00:00,
2013-04-26 13:05:00,66.5,34.1,30.54,SSW,192,2.0,2.0,30,0.00,,,0.00,Wunderground v.1.13,2013-04-26 17:05:00,
2013-04-26 13:10:00,66.8,35.2,30.54,SSW,196,2.0,5.0,31,0.00,,,0.00,Wunderground v.1.13,2013-04-26 17:10:00,
2013-04-26 13:15:00,67.5,35.8,30.54,SW,223,0.0,2.0,31,0.00,,,0.00,Wunderground v.1.13,2013-04-26 17:15:00,
2013-04-26 13:20:00,67.9,35.3,30.54,South,182,0.0,1.0,30,0.00,,,0.00,Wunderground v.1.13,2013-04-26 17:20:00,
2013-04-26 13:25:00,68.3,34.8,30.54,SW,214,0.0,5.0,29,0.00,,,0.00,Wunderground v.1.13,2013-04-26 17:25:00,
2013-04-26 13:30:00,67.9,34.4,30.55,South,186,0.0,5.0,29,0.00,,,0.00,Wunderground v.1.13,2013-04-26 17:30:00,
2013-04-26 13:35:00,67.6,35.9,30.55,ESE,109,1.0,2.0,31,0.00,,,0.00,Wunderground v.1.13,2013-04-26 17:35:00,
2013-04-26 13:40:00,67.8,35.2,30.55,SW,214,2.0,4.0,30,0.00,,,0.00,Wunderground v.1.13,2013-04-26 17:40:00,
2013-04-26 13:45:00,67.5,37.4,30.54,SW,215,0.0,2.0,33,0.00,,,0.00,Wunderground v.1.13,2013-04-26 17:45:00,
2013-04-26 13:50:00,67.9,37.7,30.54,West,264,3.0,3.0,33,0.00,,,0.00,Wunderground v.1.13,2013-04-26 17:50:00,
2013-04-26 13:55:00,68.6,37.5,30.53,West,259,0.0,3.0,32,0.00,,,0.00,Wunderground v.1.13,2013-04-26 17:55:00,
2013-04-26 14:00:00,68.9,34.4,30.53,North,350,0.0,2.0,28,0.00,,,0.00,Wunderground v.1.13,2013-04-26 18:00:00,
2013-04-26 14:06:00,68.9,37.0,30.53,North,350,0.0,1.0,31,0.00,,,0.00,Wunderground v.1.13,2013-04-26 18:06:00,
2013-04-26 14:10:00,69.8,37.8,30.53,South,187,0.0,1.0,31,0.00,,,0.00,Wunderground v.1.13,2013-04-26 18:10:00,
2013-04-26 14:15:00,69.5,34.0,30.53,WSW,248,1.0,1.0,27,0.00,,,0.00,Wunderground v.1.13,2013-04-26 18:15:00,
2013-04-26 14:20:00,69.0,35.4,30.52,North,349,0.0,3.0,29,0.00,,,0.00,Wunderground v.1.13,2013-04-26 18:20:00,
2013-04-26 14:25:00,69.4,34.9,30.52,South,190,2.0,2.0,28,0.00,,,0.00,Wunderground v.1.13,2013-04-26 18:25:00,
2013-04-26 14:30:00,70.0,35.4,30.52,SW,218,0.0,1.0,28,0.00,,,0.00,Wunderground v.1.13,2013-04-26 18:30:00,
2013-04-26 14:35:00,70.8,36.1,30.52,WSW,238,1.0,1.0,28,0.00,,,0.00,Wunderground v.1.13,2013-04-26 18:35:00,
2013-04-26 14:40:00,71.1,35.4,30.51,WSW,257,0.0,1.0,27,0.00,,,0.00,Wunderground v.1.13,2013-04-26 18:40:00,
2013-04-26 14:45:00,71.2,35.5,30.50,WSW,257,1.0,3.0,27,0.00,,,0.00,Wunderground v.1.13,2013-04-26 18:45:00,
2013-04-26 14:51:00,71.3,35.6,30.51,South,169,4.0,4.0,27,0.00,,,0.00,Wunderground v.1.13,2013-04-26 18:51:00,
2013-04-26 14:56:00,71.7,36.8,30.51,SE,124,0.0,1.0,28,0.00,,,0.00,Wunderground v.1.13,2013-04-26 18:56:00,
2013-04-26 15:01:00,71.7,34.0,30.51,South,186,0.0,2.0,25,0.00,,,0.00,Wunderground v.1.13,2013-04-26 19:01:00,
2013-04-26 15:06:00,71.2,35.5,30.50,NW,308,0.0,1.0,27,0.00,,,0.00,Wunderground v.1.13,2013-04-26 19:06:00,
2013-04-26 15:11:00,71.1,34.5,30.50,NNW,345,3.0,4.0,26,0.00,,,0.00,Wunderground v.1.13,2013-04-26 19:11:00,
2013-04-26 15:16:00,70.8,35.1,30.50,North,350,0.0,4.0,27,0.00,,,0.00,Wunderground v.1.13,2013-04-26 19:16:00,
2013-04-26 15:21:00,70.7,32.1,30.50,North,350,0.0,1.0,24,0.00,,,0.00,Wunderground v.1.13,2013-04-26 19:21:00,
2013-04-26 15:26:00,71.1,32.5,30.50,South,178,0.0,1.0,24,0.00,,,0.00,Wunderground v.1.13,2013-04-26 19:26:00,
2013-04-26 15:31:00,71.5,35.7,30.50,SW,215,1.0,2.0,27,0.00,,,0.00,Wunderground v.1.13,2013-04-26 19:31:00,
2013-04-26 15:36:00,71.6,33.9,30.50,SSW,194,0.0,3.0,25,0.00,,,0.00,Wunderground v.1.13,2013-04-26 19:36:00,
2013-04-26 15:41:00,71.6,34.9,30.49,SSE,168,0.0,6.0,26,0.00,,,0.00,Wunderground v.1.13,2013-04-26 19:41:00,
2013-04-26 15:46:00,71.7,35.9,30.48,South,173,0.0,2.0,27,0.00,,,0.00,Wunderground v.1.13,2013-04-26 19:46:00,
2013-04-26 15:51:00,71.8,38.7,30.48,South,174,0.0,1.0,30,0.00,,,0.00,Wunderground v.1.13,2013-04-26 19:51:00,
2013-04-26 15:56:00,71.5,35.7,30.47,SSW,201,0.0,2.0,27,0.00,,,0.00,Wunderground v.1.13,2013-04-26 19:56:00,
2013-04-26 16:01:00,71.2,36.4,30.47,South,177,0.0,2.0,28,0.00,,,0.00,Wunderground v.1.13,2013-04-26 20:01:00,
2013-04-26 16:06:00,71.2,36.4,30.47,North,360,1.0,1.0,28,0.00,,,0.00,Wunderground v.1.13,2013-04-26 20:06:00,
2013-04-26 16:11:00,71.4,36.6,30.47,South,184,4.0,6.0,28,0.00,,,0.00,Wunderground v.1.13,2013-04-26 20:11:00,
2013-04-26 16:16:00,71.7,37.7,30.46,South,188,1.0,7.0,29,0.00,,,0.00,Wunderground v.1.13,2013-04-26 20:16:00,
2013-04-26 16:21:00,71.5,38.4,30.46,South,174,1.0,3.0,30,0.00,,,0.00,Wunderground v.1.13,2013-04-26 20:21:00,
2013-04-26 16:26:00,71.9,36.1,30.46,SSW,208,0.0,5.0,27,0.00,,,0.00,Wunderground v.1.13,2013-04-26 20:26:00,
2013-04-26 16:31:00,71.4,36.6,30.46,South,175,1.0,8.0,28,0.00,,,0.00,Wunderground v.1.13,2013-04-26 20:31:00,
2013-04-26 16:36:00,70.6,36.8,30.46,SSW,210,0.0,5.0,29,0.00,,,0.00,Wunderground v.1.13,2013-04-26 20:36:00,
2013-04-26 16:41:00,70.7,37.7,30.46,WSW,254,0.0,2.0,30,0.00,,,0.00,Wunderground v.1.13,2013-04-26 20:41:00,
2013-04-26 16:46:00,71.1,36.3,30.46,South,179,1.0,4.0,28,0.00,,,0.00,Wunderground v.1.13,2013-04-26 20:46:00,
2013-04-26 16:51:00,71.2,38.2,30.45,South,175,0.0,4.0,30,0.00,,,0.00,Wunderground v.1.13,2013-04-26 20:51:00,
2013-04-26 16:56:00,71.9,37.9,30.46,South,171,2.0,3.0,29,0.00,,,0.00,Wunderground v.1.13,2013-04-26 20:56:00,
2013-04-26 17:02:00,72.2,38.2,30.45,SSE,160,6.0,7.0,29,0.00,,,0.00,Wunderground v.1.13,2013-04-26 21:02:00,
2013-04-26 17:07:00,72.1,38.1,30.45,WSW,245,1.0,3.0,29,0.00,,,0.00,Wunderground v.1.13,2013-04-26 21:07:00,
2013-04-26 17:12:00,72.3,38.2,30.45,SSE,157,2.0,2.0,29,0.00,,,0.00,Wunderground v.1.13,2013-04-26 21:12:00,
2013-04-26 17:17:00,72.2,38.2,30.45,SSW,209,0.0,2.0,29,0.00,,,0.00,Wunderground v.1.13,2013-04-26 21:17:00,
2013-04-26 17:22:00,72.2,39.0,30.45,SSW,192,0.0,1.0,30,0.00,,,0.00,Wunderground v.1.13,2013-04-26 21:22:00,
2013-04-26 17:27:00,72.4,37.4,30.44,WSW,242,0.0,2.0,28,0.00,,,0.00,Wunderground v.1.13,2013-04-26 21:27:00,
2013-04-26 17:32:00,72.3,37.4,30.45,WSW,250,0.0,1.0,28,0.00,,,0.00,Wunderground v.1.13,2013-04-26 21:32:00,
2013-04-26 17:37:00,71.8,37.8,30.44,SSW,192,0.0,4.0,29,0.00,,,0.00,Wunderground v.1.13,2013-04-26 21:37:00,
2013-04-26 17:42:00,72.0,38.0,30.45,South,180,5.0,5.0,29,0.00,,,0.00,Wunderground v.1.13,2013-04-26 21:42:00,
2013-04-26 17:47:00,71.8,37.8,30.45,South,182,4.0,6.0,29,0.00,,,0.00,Wunderground v.1.13,2013-04-26 21:47:00,
2013-04-26 17:52:00,71.1,38.1,30.45,West,281,1.0,3.0,30,0.00,,,0.00,Wunderground v.1.13,2013-04-26 21:52:00,
2013-04-26 17:57:00,69.9,36.2,30.45,SW,230,1.0,7.0,29,0.00,,,0.00,Wunderground v.1.13,2013-04-26 21:57:00,
2013-04-26 18:02:00,69.1,36.3,30.45,SSW,213,0.0,3.0,30,0.00,,,0.00,Wunderground v.1.13,2013-04-26 22:02:00,
2013-04-26 18:07:00,68.6,36.7,30.46,South,178,0.0,2.0,31,0.00,,,0.00,Wunderground v.1.13,2013-04-26 22:07:00,
2013-04-26 18:12:00,68.4,37.4,30.46,SSE,161,0.0,3.0,32,0.00,,,0.00,Wunderground v.1.13,2013-04-26 22:12:00,
2013-04-26 18:17:00,68.2,37.2,30.47,SSE,153,0.0,0.0,32,0.00,,,0.00,Wunderground v.1.13,2013-04-26 22:17:00,
2013-04-26 18:23:00,68.0,37.0,30.47,South,188,3.0,3.0,32,0.00,,,0.00,Wunderground v.1.13,2013-04-26 22:23:00,
2013-04-26 18:28:00,67.6,37.5,30.47,South,186,1.0,3.0,33,0.00,,,0.00,Wunderground v.1.13,2013-04-26 22:28:00,
2013-04-26 18:33:00,67.3,37.2,30.47,SSW,192,0.0,2.0,33,0.00,,,0.00,Wunderground v.1.13,2013-04-26 22:33:00,
2013-04-26 18:38:00,67.0,37.7,30.47,SE,138,1.0,5.0,34,0.00,,,0.00,Wunderground v.1.13,2013-04-26 22:38:00,
2013-04-26 18:43:00,66.6,38.8,30.48,SW,216,1.0,1.0,36,0.00,,,0.00,Wunderground v.1.13,2013-04-26 22:43:00,
2013-04-26 18:48:00,66.3,37.8,30.48,South,188,1.0,3.0,35,0.00,,,0.00,Wunderground v.1.13,2013-04-26 22:48:00,
2013-04-26 18:53:00,66.0,38.3,30.48,South,180,0.0,3.0,36,0.00,,,0.00,Wunderground v.1.13,2013-04-26 22:53:00,
2013-04-26 18:58:00,65.8,38.1,30.49,SSW,192,0.0,1.0,36,0.00,,,0.00,Wunderground v.1.13,2013-04-26 22:58:00,
2013-04-26 19:03:00,65.6,37.9,30.49,SSW,192,0.0,2.0,36,0.00,,,0.00,Wunderground v.1.13,2013-04-26 23:03:00,
2013-04-26 19:08:00,65.5,39.2,30.48,South,174,0.0,2.0,38,0.00,,,0.00,Wunderground v.1.13,2013-04-26 23:08:00,
2013-04-26 19:13:00,65.3,38.3,30.48,SE,140,1.0,4.0,37,0.00,,,0.00,Wunderground v.1.13,2013-04-26 23:13:00,
2013-04-26 19:18:00,65.1,38.2,30.49,SSW,192,0.0,3.0,37,0.00,,,0.00,Wunderground v.1.13,2013-04-26 23:18:00,
2013-04-26 19:23:00,64.9,38.7,30.50,SSW,198,0.0,3.0,38,0.00,,,0.00,Wunderground v.1.13,2013-04-26 23:23:00,
2013-04-26 19:28:00,64.7,37.8,30.51,South,180,0.0,2.0,37,0.00,,,0.00,Wunderground v.1.13,2013-04-26 23:28:00,
2013-04-26 19:33:00,64.6,39.1,30.52,South,180,0.0,1.0,39,0.00,,,0.00,Wunderground v.1.13,2013-04-26 23:33:00,
2013-04-26 19:38:00,64.5,39.6,30.52,South,180,0.0,0.0,40,0.00,,,0.00,Wunderground v.1.13,2013-04-26 23:38:00,
2013-04-26 19:43:00,64.4,40.2,30.52,South,180,0.0,0.0,41,0.00,,,0.00,Wunderground v.1.13,2013-04-26 23:43:00,
2013-04-26 19:48:00,64.2,38.7,30.52,South,180,0.0,1.0,39,0.00,,,0.00,Wunderground v.1.13,2013-04-26 23:48:00,
2013-04-26 19:53:00,64.0,39.8,30.51,South,180,0.0,0.0,41,0.00,,,0.00,Wunderground v.1.13,2013-04-26 23:53:00,
2013-04-26 20:06:00,63.3,39.8,30.50,South,180,0.0,0.0,42,0.00,,,0.00,Wunderground v.1.13,2013-04-27 00:06:00,
2013-04-26 20:11:00,63.0,39.5,30.51,South,180,0.0,0.0,42,0.00,,,0.00,Wunderground v.1.13,2013-04-27 00:11:00,
2013-04-26 20:16:00,62.6,39.8,30.51,South,180,0.0,0.0,43,0.00,,,0.00,Wunderground v.1.13,2013-04-27 00:16:00,
2013-04-26 20:21:00,62.2,39.4,30.51,South,180,0.0,0.0,43,0.00,,,0.00,Wunderground v.1.13,2013-04-27 00:21:00,
2013-04-26 20:26:00,61.8,39.6,30.51,South,180,0.0,0.0,44,0.00,,,0.00,Wunderground v.1.13,2013-04-27 00:26:00,
2013-04-26 20:31:00,61.5,39.4,30.51,South,180,0.0,0.0,44,0.00,,,0.00,Wunderground v.1.13,2013-04-27 00:31:00,
2013-04-26 20:36:00,61.3,38.6,30.51,South,180,0.0,0.0,43,0.00,,,0.00,Wunderground v.1.13,2013-04-27 00:36:00,
2013-04-26 20:41:00,61.2,39.1,30.50,South,180,0.0,0.0,44,0.00,,,0.00,Wunderground v.1.13,2013-04-27 00:41:00,
2013-04-26 20:46:00,61.2,39.1,30.50,South,180,0.0,0.0,44,0.00,,,0.00,Wunderground v.1.13,2013-04-27 00:46:00,
2013-04-26 20:51:00,61.3,39.2,30.49,South,180,0.0,0.0,44,0.00,,,0.00,Wunderground v.1.13,2013-04-27 00:51:00,
2013-04-26 20:56:00,61.3,39.2,30.50,South,180,0.0,0.0,44,0.00,,,0.00,Wunderground v.1.13,2013-04-27 00:56:00,
2013-04-26 21:01:00,61.3,39.8,30.49,South,180,0.0,0.0,45,0.00,,,0.00,Wunderground v.1.13,2013-04-27 01:01:00,
2013-04-26 21:06:00,61.3,40.3,30.48,South,180,0.0,0.0,46,0.00,,,0.00,Wunderground v.1.13,2013-04-27 01:06:00,
2013-04-26 21:11:00,61.2,40.2,30.46,South,180,0.0,0.0,46,0.00,,,0.00,Wunderground v.1.13,2013-04-27 01:11:00,
2013-04-26 21:17:00,61.1,40.1,30.45,South,180,0.0,0.0,46,0.00,,,0.00,Wunderground v.1.13,2013-04-27 01:17:00,
2013-04-26 21:22:00,61.1,39.6,30.44,SSW,192,0.0,0.0,45,0.00,,,0.00,Wunderground v.1.13,2013-04-27 01:22:00,
2013-04-26 21:27:00,61.1,40.1,30.44,SSW,192,0.0,0.0,46,0.00,,,0.00,Wunderground v.1.13,2013-04-27 01:27:00,
2013-04-26 21:32:00,60.9,38.8,30.42,SW,221,0.0,4.0,44,0.00,,,0.00,Wunderground v.1.13,2013-04-27 01:32:00,
2013-04-26 21:37:00,61.0,40.1,30.43,SW,221,0.0,0.0,46,0.00,,,0.00,Wunderground v.1.13,2013-04-27 01:37:00,
2013-04-26 21:42:00,60.9,42.6,30.43,SW,221,0.0,0.0,51,0.00,,,0.00,Wunderground v.1.13,2013-04-27 01:42:00,
2013-04-26 21:47:00,60.5,42.3,30.43,SW,221,0.0,0.0,51,0.00,,,0.00,Wunderground v.1.13,2013-04-27 01:47:00,
2013-04-26 21:52:00,60.3,41.0,30.44,SW,221,0.0,0.0,49,0.00,,,0.00,Wunderground v.1.13,2013-04-27 01:52:00,
2013-04-26 21:57:00,60.2,39.9,30.43,SW,221,0.0,1.0,47,0.00,,,0.00,Wunderground v.1.13,2013-04-27 01:57:00,
2013-04-26 22:02:00,60.3,40.5,30.45,SW,221,0.0,0.0,48,0.00,,,0.00,Wunderground v.1.13,2013-04-27 02:02:00,
2013-04-26 22:07:00,60.3,43.1,30.45,SW,221,0.0,0.0,53,0.00,,,0.00,Wunderground v.1.13,2013-04-27 02:07:00,
2013-04-26 22:12:00,59.9,44.6,30.46,SW,221,0.0,0.0,57,0.00,,,0.00,Wunderground v.1.13,2013-04-27 02:12:00,
2013-04-26 22:17:00,59.5,43.8,30.47,SW,221,0.0,0.0,56,0.00,,,0.00,Wunderground v.1.13,2013-04-27 02:17:00,
2013-04-26 22:22:00,59.3,44.5,30.48,SW,221,0.0,0.0,58,0.00,,,0.00,Wunderground v.1.13,2013-04-27 02:22:00,
2013-04-26 22:27:00,58.9,43.7,30.48,SW,221,0.0,0.0,57,0.00,,,0.00,Wunderground v.1.13,2013-04-27 02:27:00,
2013-04-26 22:32:00,58.6,42.9,30.48,SW,221,0.0,0.0,56,0.00,,,0.00,Wunderground v.1.13,2013-04-27 02:32:00,
2013-04-26 22:37:00,58.5,42.4,30.49,SW,221,0.0,0.0,55,0.00,,,0.00,Wunderground v.1.13,2013-04-27 02:37:00,
2013-04-26 22:42:00,58.5,42.4,30.49,SW,221,0.0,0.0,55,0.00,,,0.00,Wunderground v.1.13,2013-04-27 02:42:00,
2013-04-26 22:47:00,58.6,42.9,30.50,SW,220,0.0,2.0,56,0.00,,,0.00,Wunderground v.1.13,2013-04-27 02:47:00,
2013-04-26 22:52:00,58.7,45.7,30.50,SW,220,0.0,0.0,62,0.00,,,0.00,Wunderground v.1.13,2013-04-27 02:52:00,
2013-04-26 22:57:00,58.5,45.5,30.50,SW,220,0.0,0.0,62,0.00,,,0.00,Wunderground v.1.13,2013-04-27 02:57:00,
2013-04-26 23:02:00,58.0,46.3,30.50,SW,220,0.0,0.0,65,0.00,,,0.00,Wunderground v.1.13,2013-04-27 03:02:00,
2013-04-26 23:07:00,57.3,46.8,30.50,SW,220,0.0,0.0,68,0.00,,,0.00,Wunderground v.1.13,2013-04-27 03:07:00,
2013-04-26 23:12:00,56.8,46.0,30.50,SW,220,0.0,0.0,67,0.00,,,0.00,Wunderground v.1.13,2013-04-27 03:12:00,
2013-04-26 23:17:00,56.7,47.4,30.50,SW,220,0.0,0.0,71,0.00,,,0.01,Wunderground v.1.13,2013-04-27 03:17:00,
2013-04-26 23:22:00,56.1,48.3,30.50,SW,220,0.0,0.0,75,0.00,,,0.01,Wunderground v.1.13,2013-04-27 03:22:00,
2013-04-26 23:27:00,55.3,47.2,30.51,SW,220,0.0,0.0,74,0.07,,,0.02,Wunderground v.1.13,2013-04-27 03:27:00,
2013-04-26 23:32:00,54.5,47.1,30.51,SW,220,0.0,0.0,76,0.07,,,0.02,Wunderground v.1.13,2013-04-27 03:32:00,
2013-04-26 23:38:00,54.1,47.7,30.51,SW,220,0.0,0.0,79,0.06,,,0.03,Wunderground v.1.13,2013-04-27 03:38:00,
2013-04-26 23:43:00,53.4,48.0,30.51,SW,220,0.0,0.0,82,0.10,,,0.04,Wunderground v.1.13,2013-04-27 03:43:00,
2013-04-26 23:48:00,52.8,47.5,30.50,SW,220,0.0,0.0,82,0.07,,,0.04,Wunderground v.1.13,2013-04-27 03:48:00,
2013-04-26 23:53:00,52.5,47.8,30.50,SW,220,0.0,0.0,84,0.06,,,0.05,Wunderground v.1.13,2013-04-27 03:53:00,
2013-04-26 23:58:00,52.3,48.2,30.50,SW,220,0.0,0.0,86,0.06,,,0.05,Wunderground v.1.13,2013-04-27 03:58:00,